Hlavní strana
METAR-TAF:

METAR-TAF

Letiště :

Jimmy Lake, Saskatchewan, Kanada

zeměpisná šířka: 54-55N, zeměpisná délka: 109-57W, výška: 658 m

Aktuální stav počasí

Zpráva byla vytvořena před 30 minutami, v 22:00 UTC
Západní vítr 10 kt s nárazy do 18 kt
Teplota 20°C
Vlhkost vzduchu 18%
Tlak 1011 hPa
Viditelnost: 14.5 km
Jasno

METAR: CWHN 172200Z AUTO 27010G18KT 9SM CLR 20/M05 A2984 RMK SLP120

Čas: 16:30 (22:30 UTC)


TAF: chybějící

Stav a předpovědi počasí z více než 4 000 letišť (zprávy METAR a TAF).

Červené a žluté tečky na mapě představují dostupné meteorologické stanice.

Když kurzor umístíte na tečku, zobrazí se název stanice.

Pak kliknutím zobrazíte stav a předpověď počasí.

Chcete-li změnit mapu, kliknutím na zelené tlačítko se znaménkem +mapu přiblížíte, kliknutím na zelené tlačítko se znaménkem – mapu oddálíte a kliknutím na zelené šipky přejdete na sousední mapy.


METAR-TAF: